Location: Lafig�re
(44.4503°N, 4.0357°E)
Time: 17:10:20
(UTC+00:00)

BREEZE-M DEB (TANK) - Pass Details

Date: 24 September 2020
Orbit: 315 x 16294 km, 49.4° (Epoch: 20 October)

Event Time Altitude Azimuth Distance (km) Brightness Sun altitude
Rises 19:17:15 0° 292° (WNW) 2,357 7.3 -18.5°
Reaches altitude 10° 19:18:36 10° 287° (WNW) 1,726 6.1 -18.7°
Maximum altitude 19:21:54 59° 207° (SSW) 976 3.5 -19.3°
Enters shadow 19:26:42 24° 137° (SE) 2,793 5.3 -20.1°
